Location: Berlin
(38.3226°N, 75.2177°W)
Time: 15:44:23
(UTC+00:00)

Nadezhda 4 Rocket - Pass Details

Date: 26 October 2020
Orbit: 950 x 991 km, 82.9° (Epoch: 23 November)

Event Time Altitude Azimuth Distance (km) Brightness Sun altitude
Rises 09:05:31 0° 175° (S) 3,609 7.0 -27.2°
Reaches altitude 10° 09:08:01 10° 172° (S) 2,666 6.3 -26.7°
Maximum altitude 09:14:00 62° 93° (E) 1,060 4.3 -25.6°
Drops below altitude 10° 09:20:02 10° 14° (NNE) 2,689 6.5 -24.4°
Sets 09:22:34 0° 11° (N) 3,643 7.2 -23.9°
